Concord, CA

9:15 PM PDT on July 22, 2017 (GMT -0700)
Buchanan

Weather History for KCCR - June, 2014

Change the Weather History Date:

Tuesday, June 17, 2014

  Actual Average Record
Temperature  
Mean Temperature 68 °F 70 °F  
Max Temperature 82 °F 83 °F 100 °F (2017)
Min Temperature 53 °F 56 °F 50 °F (2008)
Degree Days  
Heating Degree Days 0    
Month to date heating degree days 6  
Since 1 June heating degree days 6  
Since 1 July heating degree days 2127  
Cooling Degree Days 3    
Month to date cooling degree days 85  
Year to date cooling degree days 207  
Since 1 June cooling degree days 85  
Growing Degree Days 18 (Base 50)    
Moisture  
Dew Point 41 °F    
Average Humidity 49    
Maximum Humidity 77    
Minimum Humidity 20    
Precipitation  
Precipitation 0.00 in - 0.00 in (2017)
Month to date precipitation 0.00  
Year to date precipitation 8.32  
Since 1 July precipitation 10.80  
Sea Level Pressure  
Sea Level Pressure 29.87 in    
Wind  
Wind Speed 8 mph (SW)    
Max Wind Speed 21 mph    
Max Gust Speed 25 mph    
Visibility 10 miles    
Events      
T = Trace of Precipitation, MM = Missing Value Source: NWS Daily Summary

Daily Weather History Graph

Daily Weather History Graph

Search for Another Location

Airport or City:

Trip Planner

Search our weather history database for the weather conditions in past years. The results will help you decide how hot, cold, wet, or windy it might be!

Date:

Astronomy

Jun. 17, 2014 Rise Set
Actual Time 5:45 AM PDT 8:33 PM PDT
Civil Twilight 5:13 AM PDT 9:04 PM PDT
Nautical Twilight 4:34 AM PDT 9:44 PM PDT
Astronomical Twilight 3:49 AM PDT 10:29 PM PDT
Moon No Moon Rise 11:01 AM PDT (6/17)
Length of Visible Light 15h 50m
Length of Day
14h 47m
Waning Gibbous, 72% of the Moon is Illuminated
Jun 17
Waning Gibbous
Jun 19
Last Quarter
Jun 27
New
Jul 5
First Quarter
Jul 12
Full

Hourly Weather History & Observations

Time (PDT) Temp. Dew Point Humidity Pressure Visibility Wind Dir Wind Speed Gust Speed Precip Events Conditions
12:53 AM 54.0 °F 46.9 °F 77% 29.83 in 10.0 mi South 18.4 mph - N/A   Clear
1:53 AM 54.0 °F 46.9 °F 77% 29.82 in 10.0 mi South 16.1 mph - N/A   Clear
2:53 AM 55.0 °F 46.0 °F 72% 29.82 in 10.0 mi SSW 15.0 mph - N/A   Clear
3:53 AM 55.0 °F 45.0 °F 69% 29.83 in 10.0 mi SSW 9.2 mph - N/A   Clear
4:53 AM 54.0 °F 46.0 °F 75% 29.85 in 10.0 mi South 10.4 mph - N/A   Clear
5:53 AM 53.1 °F 46.0 °F 77% 29.87 in 10.0 mi South 10.4 mph - N/A   Clear
6:53 AM 55.0 °F 46.0 °F 72% 29.88 in 10.0 mi South 5.8 mph - N/A   Clear
7:53 AM 59.0 °F 46.0 °F 62% 29.90 in 10.0 mi SSE 5.8 mph - N/A   Clear
8:53 AM 62.1 °F 45.0 °F 53% 29.91 in 10.0 mi South 3.5 mph - N/A   Clear
9:53 AM 66.0 °F 43.0 °F 43% 29.91 in 10.0 mi Calm Calm - N/A   Clear
10:53 AM 71.1 °F 39.9 °F 32% 29.90 in 10.0 mi NNW 9.2 mph - N/A   Clear
11:53 AM 73.9 °F 39.0 °F 28% 29.90 in 10.0 mi NNW 6.9 mph - N/A   Clear
12:53 PM 75.9 °F 37.9 °F 25% 29.89 in 10.0 mi Variable 4.6 mph - N/A   Clear
1:53 PM 79.0 °F 39.0 °F 24% 29.88 in 10.0 mi Variable 3.5 mph - N/A   Clear
2:53 PM 81.0 °F 37.0 °F 21% 29.87 in 10.0 mi NW 9.2 mph - N/A   Clear
3:53 PM 82.0 °F 37.0 °F 20% 29.86 in 10.0 mi NNW 13.8 mph 20.7 mph N/A   Clear
4:10 PM 82.0 °F 37.9 °F 21% 29.90 in 10.0 mi West 9.2 mph 19.6 mph N/A   Clear
4:53 PM 80.1 °F 37.9 °F 22% 29.86 in 10.0 mi West 11.5 mph - N/A   Clear
5:53 PM 79.0 °F 39.0 °F 24% 29.85 in 10.0 mi West 13.8 mph - N/A   Clear
6:53 PM 77.0 °F 37.9 °F 24% 29.84 in 10.0 mi West 12.7 mph - N/A   Clear
7:53 PM 73.9 °F 35.1 °F 24% 29.86 in 10.0 mi West 8.1 mph - N/A   Clear
8:53 PM 69.1 °F 37.9 °F 32% 29.87 in 10.0 mi West 5.8 mph - N/A   Clear
9:53 PM 68.0 °F 37.0 °F 32% 29.88 in 10.0 mi SW 9.2 mph - N/A   Clear
10:53 PM 64.0 °F 37.0 °F 37% 29.88 in 10.0 mi South 5.8 mph - N/A   Clear
11:53 PM 61.0 °F 37.9 °F 42% 29.87 in 10.0 mi South 5.8 mph - N/A   Clear